Flag for Germany Weather past 2 weeks in Karlsruhe, Baden-Württemberg, Germany

Now
55 °F

Clear.


Feels Like: 55 °F
Forecast: 47 / 68 °F
Wind: 3 mph from South

Location: Karlsruhe - Baden Wurttemberg

Current Time: Sep 4, 2015 at 12:08:43 AM

Latest Report: Sep 3, 2015 at 11:20 PM


Visibility: 10 mi

Pressure: 29.98 "Hg

Humidity: 72%

Dew point: 46 °F

Location of KarlsruheLocation

Historic Weather in Karlsruhe — Graph

°F

Karlsruhe temperature yesterday

Maximum temperature yesterday: 70 °F (at 12:50 PM)
Minimum temperature yesterday: 54 °F (at 10:50 PM)
Average temperature yesterday: 63 °F

Past Weeks' High & Low Weather Summary

 TemperatureHumidityPressure
High93 °F (Aug 30, 4:20 PM)94% (Aug 21, 4:50 AM)30.24 "Hg (Aug 21, 4:50 AM)
Low50 °F (Aug 20, 4:50 AM)19% (Aug 31, 3:20 PM)29.68 "Hg (Aug 24, 7:20 AM)
Average70 °F61%30.00 "Hg
* Reported Aug 19 10:20 PM — Sep 3 10:50 PM, Karlsruhe, Weather by CustomWeather, © 2015

Note: Actual official high and low records may vary slightly from our data, if they occured in-between our weather recording intervals... More about our weather records

Advertising

Karlsruhe weather history for previous 24 hours

 ConditionsComfort  
Time TempWeatherWind HumidityBarometerVisibility
10:50 PM
Thu, Sep 3
54 °FPassing clouds.5 mph72%29.98 "HgN/A
10:20 PM57 °FClear.3 mph63%29.98 "Hg10 mi
9:50 PM61 °FClear.3 mph55%29.98 "Hg10 mi
9:20 PM63 °FClear.2 mph56%29.98 "Hg10 mi
8:50 PM63 °FSunny.2 mph52%29.98 "Hg10 mi
8:20 PM64 °FSunny.3 mph49%29.95 "Hg10 mi
7:50 PM64 °FSunny.2 mph49%29.95 "Hg10 mi
7:20 PM66 °FSunny.6 mph43%29.95 "Hg10 mi
6:50 PM68 °FSunny.7 mph40%29.95 "Hg10 mi
6:20 PM68 °FSunny.6 mph40%29.95 "Hg10 mi
5:20 PM68 °FBroken clouds.8 mph40%29.95 "HgN/A
4:50 PM68 °FSunny.5 mph40%29.95 "Hg10 mi
4:20 PM70 °FSunny.7 mph38%29.95 "Hg10 mi
3:50 PM68 °FSunny.3 mph43%29.95 "Hg10 mi
3:20 PM68 °FPassing clouds.5 mph40%29.95 "HgN/A
2:50 PM70 °FPassing clouds.5 mph35%29.95 "HgN/A
2:20 PM68 °FPassing clouds.6 mph43%29.95 "HgN/A
1:50 PM68 °FBroken clouds.3 mph46%29.95 "HgN/A
1:20 PM68 °FSunny.5 mph43%29.98 "Hg10 mi
12:50 PM70 °FSunny.2 mph40%29.98 "Hg10 mi
12:20 PM68 °FSunny.5 mph43%29.98 "Hg10 mi
11:50 AM66 °FSunny.2 mph46%29.98 "Hg10 mi
11:20 AM66 °FPassing clouds.6 mph52%29.98 "HgN/A
10:50 AM64 °FSunny.6 mph60%29.98 "Hg10 mi
10:20 AM64 °FPassing clouds.5 mph60%29.98 "HgN/A
9:50 AM63 °FPassing clouds.6 mph68%29.98 "HgN/A
9:20 AM61 °FSunny.5 mph77%29.98 "Hg10 mi
8:50 AM59 °FBroken clouds.3 mph82%29.98 "HgN/A
8:20 AM59 °FBroken clouds.6 mph82%29.98 "HgN/A
7:50 AM57 °FSunny.6 mph88%29.98 "Hg10 mi
7:20 AM55 °FClear.2 mph94%29.98 "Hg10 mi
6:50 AM55 °FClear.2 mph88%29.98 "Hg10 mi
6:20 AM55 °FClear.2 mph94%29.95 "Hg10 mi
5:20 AM57 °FClear.2 mph88%29.95 "Hg10 mi
4:50 AM57 °FClear.2 mph88%29.98 "Hg10 mi
Weather by CustomWeather, © 2015

See weather overviewHow to use our weather pages